Time,TemperatureF,DewpointF,PressureIn,WindDirection,WindDirectionDegrees,WindSpeedMPH,WindSpeedGustMPH,Humidity,HourlyPrecipIn,Conditions,Clouds,dailyrainin,SoftwareType,DateUTC
2013-08-03 00:02:00,67.0,56.0,29.69,East,97,9.0,-999.0,68,-99.99,,,-99.99,,2013-08-03 06:02:00,
2013-08-03 00:12:00,65.0,56.0,29.71,East,86,7.0,-999.0,72,-99.99,,,-99.99,,2013-08-03 06:12:00,
2013-08-03 00:32:00,64.0,56.0,29.72,ENE,70,9.0,-999.0,75,-99.99,,,-99.99,,2013-08-03 06:32:00,
2013-08-03 00:42:00,65.0,56.0,29.72,NE,55,7.0,-999.0,74,-99.99,,,-99.99,,2013-08-03 06:42:00,
2013-08-03 00:52:00,65.0,56.0,29.72,NE,55,7.0,-999.0,74,-99.99,,,-99.99,,2013-08-03 06:52:00,
2013-08-03 01:02:00,63.0,56.0,29.71,ENE,66,9.0,-999.0,78,-99.99,,,-99.99,,2013-08-03 07:02:00,
2013-08-03 01:12:00,63.0,56.0,29.71,ENE,75,10.0,-999.0,78,-99.99,,,-99.99,,2013-08-03 07:12:00,
2013-08-03 01:22:00,63.0,56.0,29.71,ENE,75,10.0,-999.0,78,-99.99,,,-99.99,,2013-08-03 07:22:00,
2013-08-03 01:32:00,63.0,56.0,29.70,NE,34,8.0,-999.0,78,-99.99,,,-99.99,,2013-08-03 07:32:00,
2013-08-03 01:43:00,64.0,56.0,29.69,NNE,25,5.0,-999.0,76,-99.99,,,-99.99,,2013-08-03 07:43:00,
2013-08-03 01:52:00,64.0,56.0,29.69,NNE,25,5.0,-999.0,76,-99.99,,,-99.99,,2013-08-03 07:52:00,
2013-08-03 02:02:00,64.0,56.0,29.69,North,11,5.0,-999.0,74,-99.99,,,-99.99,,2013-08-03 08:02:00,
2013-08-03 02:22:00,64.0,55.0,29.70,North,10,6.0,-999.0,72,-99.99,,,-99.99,,2013-08-03 08:22:00,
2013-08-03 02:32:00,64.0,56.0,29.70,North,1,8.0,-999.0,74,-99.99,,,-99.99,,2013-08-03 08:32:00,
2013-08-03 02:52:00,63.0,55.0,29.69,North,8,6.0,-999.0,75,-99.99,,,-99.99,,2013-08-03 08:52:00,
2013-08-03 03:02:00,63.0,55.0,29.67,ENE,60,7.0,-999.0,75,-99.99,,,-99.99,,2013-08-03 09:02:00,
2013-08-03 03:12:00,62.0,56.0,29.65,NNE,14,4.0,-999.0,80,-99.99,,,-99.99,,2013-08-03 09:12:00,
2013-08-03 03:22:00,62.0,56.0,29.65,NNE,14,4.0,-999.0,80,-99.99,,,-99.99,,2013-08-03 09:22:00,
2013-08-03 03:32:00,62.0,57.0,29.67,North,7,3.0,-999.0,83,-99.99,,,-99.99,,2013-08-03 09:32:00,
2013-08-03 03:43:00,62.0,57.0,29.67,North,3,4.0,-999.0,84,-99.99,,,-99.99,,2013-08-03 09:43:00,
2013-08-03 03:53:00,62.0,57.0,29.67,North,3,4.0,-999.0,84,-99.99,,,-99.99,,2013-08-03 09:53:00,
2013-08-03 04:02:00,61.0,56.0,29.72,North,3,0.0,-999.0,85,-99.99,,,-99.99,,2013-08-03 10:02:00,
2013-08-03 04:12:00,61.0,57.0,29.72,North,3,0.0,-999.0,87,-99.99,,,-99.99,,2013-08-03 10:12:00,
2013-08-03 04:22:00,61.0,57.0,29.72,North,3,0.0,-999.0,87,-99.99,,,-99.99,,2013-08-03 10:22:00,
2013-08-03 04:32:00,61.0,57.0,29.71,North,3,0.0,-999.0,88,-99.99,,,-99.99,,2013-08-03 10:32:00,
2013-08-03 04:42:00,60.0,57.0,29.71,North,3,1.0,-999.0,89,-99.99,,,-99.99,,2013-08-03 10:42:00,
2013-08-03 04:52:00,60.0,57.0,29.71,North,3,1.0,-999.0,89,-99.99,,,-99.99,,2013-08-03 10:52:00,
2013-08-03 05:02:00,60.0,57.0,29.72,NNE,18,3.0,-999.0,90,-99.99,,,-99.99,,2013-08-03 11:02:00,
2013-08-03 05:12:00,60.0,57.0,29.71,NNE,27,2.0,-999.0,90,-99.99,,,-99.99,,2013-08-03 11:12:00,
2013-08-03 05:22:00,60.0,57.0,29.71,NNE,27,2.0,-999.0,90,-99.99,,,-99.99,,2013-08-03 11:22:00,
2013-08-03 05:32:00,60.0,57.0,29.71,NNE,27,1.0,-999.0,91,-99.99,,,-99.99,,2013-08-03 11:32:00,
2013-08-03 05:43:00,60.0,57.0,29.72,NNE,27,0.0,-999.0,90,-99.99,,,-99.99,,2013-08-03 11:43:00,
2013-08-03 05:53:00,60.0,57.0,29.72,NNE,27,0.0,-999.0,90,-99.99,,,-99.99,,2013-08-03 11:53:00,
2013-08-03 06:02:00,60.0,57.0,29.72,NNE,27,0.0,-999.0,90,-99.99,,,-99.99,,2013-08-03 12:02:00,
2013-08-03 06:12:00,60.0,57.0,29.73,North,11,0.0,-999.0,90,-99.99,,,-99.99,,2013-08-03 12:12:00,
2013-08-03 06:22:00,60.0,57.0,29.73,North,11,0.0,-999.0,90,-99.99,,,-99.99,,2013-08-03 12:22:00,
2013-08-03 06:33:00,60.0,57.0,29.73,North,11,0.0,-999.0,89,-99.99,,,-99.99,,2013-08-03 12:33:00,
2013-08-03 06:43:00,60.0,57.0,29.73,North,11,0.0,-999.0,89,-99.99,,,-99.99,,2013-08-03 12:43:00,
2013-08-03 06:52:00,60.0,57.0,29.73,North,11,0.0,-999.0,89,-99.99,,,-99.99,,2013-08-03 12:52:00,
2013-08-03 07:02:00,60.0,57.0,29.71,North,11,0.0,-999.0,89,-99.99,,,-99.99,,2013-08-03 13:02:00,
2013-08-03 07:12:00,61.0,58.0,29.72,North,4,0.0,-999.0,89,-99.99,,,-99.99,,2013-08-03 13:12:00,
2013-08-03 07:22:00,61.0,58.0,29.72,North,4,0.0,-999.0,89,-99.99,,,-99.99,,2013-08-03 13:22:00,
2013-08-03 07:32:00,63.0,60.0,29.71,North,4,0.0,-999.0,89,-99.99,,,-99.99,,2013-08-03 13:32:00,
2013-08-03 07:43:00,63.0,59.0,29.71,North,4,0.0,-999.0,87,-99.99,,,-99.99,,2013-08-03 13:43:00,
2013-08-03 07:52:00,63.0,59.0,29.71,North,4,0.0,-999.0,87,-99.99,,,-99.99,,2013-08-03 13:52:00,
2013-08-03 08:02:00,65.0,59.0,29.72,North,4,0.0,-999.0,81,-99.99,,,-99.99,,2013-08-03 14:02:00,
2013-08-03 08:12:00,65.0,58.0,29.73,North,4,0.0,-999.0,77,-99.99,,,-99.99,,2013-08-03 14:12:00,
2013-08-03 08:22:00,65.0,58.0,29.73,North,4,0.0,-999.0,77,-99.99,,,-99.99,,2013-08-03 14:22:00,
2013-08-03 08:33:00,67.0,58.0,29.73,North,4,0.0,-999.0,74,-99.99,,,-99.99,,2013-08-03 14:33:00,
2013-08-03 08:42:00,67.0,58.0,29.72,North,4,0.0,-999.0,73,-99.99,,,-99.99,,2013-08-03 14:42:00,
2013-08-03 08:52:00,67.0,58.0,29.72,North,4,0.0,-999.0,73,-99.99,,,-99.99,,2013-08-03 14:52:00,
2013-08-03 09:02:00,68.0,57.0,29.74,North,1,1.0,-999.0,69,-99.99,,,-99.99,,2013-08-03 15:02:00,
2013-08-03 09:12:00,69.0,57.0,29.74,North,1,0.0,-999.0,65,-99.99,,,-99.99,,2013-08-03 15:12:00,
2013-08-03 09:22:00,69.0,57.0,29.74,North,1,0.0,-999.0,65,-99.99,,,-99.99,,2013-08-03 15:22:00,
2013-08-03 09:32:00,70.0,56.0,29.73,North,1,0.0,-999.0,62,-99.99,,,-99.99,,2013-08-03 15:32:00,
2013-08-03 09:53:00,71.0,56.0,29.73,North,1,1.0,-999.0,59,-99.99,,,-99.99,,2013-08-03 15:53:00,
2013-08-03 10:02:00,72.0,56.0,29.74,SE,124,1.0,-999.0,58,-99.99,,,-99.99,,2013-08-03 16:02:00,
2013-08-03 10:12:00,74.0,57.0,29.74,SE,124,1.0,-999.0,56,-99.99,,,-99.99,,2013-08-03 16:12:00,
2013-08-03 10:23:00,74.0,57.0,29.74,SE,124,1.0,-999.0,56,-99.99,,,-99.99,,2013-08-03 16:23:00,
2013-08-03 10:33:00,74.0,57.0,29.72,South,174,3.0,-999.0,56,-99.99,,,-99.99,,2013-08-03 16:33:00,
2013-08-03 10:43:00,74.0,57.0,29.72,South,174,3.0,-999.0,55,-99.99,,,-99.99,,2013-08-03 16:43:00,
2013-08-03 10:53:00,74.0,57.0,29.72,South,174,3.0,-999.0,55,-99.99,,,-99.99,,2013-08-03 16:53:00,
2013-08-03 11:03:00,76.0,57.0,29.73,South,175,2.0,-999.0,52,-99.99,,,-99.99,,2013-08-03 17:03:00,
2013-08-03 11:12:00,76.0,57.0,29.73,South,175,2.0,-999.0,52,-99.99,,,-99.99,,2013-08-03 17:12:00,
2013-08-03 11:22:00,77.0,55.0,29.72,South,186,3.0,-999.0,46,-99.99,,,-99.99,,2013-08-03 17:22:00,
2013-08-03 11:32:00,77.0,54.0,29.72,South,186,4.0,-999.0,45,-99.99,,,-99.99,,2013-08-03 17:32:00,
2013-08-03 11:43:00,79.0,53.0,29.71,West,264,4.0,-999.0,40,-99.99,,,-99.99,,2013-08-03 17:43:00,
2013-08-03 11:52:00,79.0,53.0,29.71,West,264,4.0,-999.0,40,-99.99,,,-99.99,,2013-08-03 17:52:00,
2013-08-03 12:02:00,78.0,52.0,29.73,WSW,256,7.0,-999.0,40,-99.99,,,-99.99,,2013-08-03 18:02:00,
2013-08-03 12:12:00,78.0,52.0,29.73,WSW,256,7.0,-999.0,40,-99.99,,,-99.99,,2013-08-03 18:12:00,
2013-08-03 12:22:00,79.0,53.0,29.73,WSW,252,6.0,-999.0,40,-99.99,,,-99.99,,2013-08-03 18:22:00,
2013-08-03 12:32:00,80.0,51.0,29.72,West,261,6.0,-999.0,36,-99.99,,,-99.99,,2013-08-03 18:32:00,
2013-08-03 12:42:00,80.0,51.0,29.72,West,261,6.0,-999.0,36,-99.99,,,-99.99,,2013-08-03 18:42:00,
2013-08-03 12:53:00,81.0,52.0,29.72,SW,231,4.0,-999.0,36,-99.99,,,-99.99,,2013-08-03 18:53:00,
2013-08-03 13:02:00,81.0,49.0,29.72,West,259,6.0,-999.0,33,-99.99,,,-99.99,,2013-08-03 19:02:00,
2013-08-03 13:12:00,81.0,49.0,29.72,West,259,6.0,-999.0,33,-99.99,,,-99.99,,2013-08-03 19:12:00,
2013-08-03 13:22:00,83.0,50.0,29.70,SSW,203,4.0,-999.0,32,-99.99,,,-99.99,,2013-08-03 19:22:00,
2013-08-03 13:32:00,83.0,47.0,29.70,WSW,255,5.0,-999.0,28,-99.99,,,-99.99,,2013-08-03 19:32:00,
2013-08-03 13:42:00,84.0,47.0,29.70,WSW,245,5.0,-999.0,28,-99.99,,,-99.99,,2013-08-03 19:42:00,
2013-08-03 13:52:00,84.0,47.0,29.70,WSW,245,5.0,-999.0,28,-99.99,,,-99.99,,2013-08-03 19:52:00,
2013-08-03 14:02:00,84.0,46.0,29.69,SSW,193,3.0,-999.0,27,-99.99,,,-99.99,,2013-08-03 20:02:00,
2013-08-03 14:12:00,84.0,46.0,29.69,SSW,193,3.0,-999.0,27,-99.99,,,-99.99,,2013-08-03 20:12:00,
2013-08-03 14:22:00,85.0,48.0,29.68,SW,235,4.0,-999.0,28,-99.99,,,-99.99,,2013-08-03 20:22:00,
2013-08-03 14:32:00,86.0,47.0,29.67,West,264,1.0,-999.0,26,-99.99,,,-99.99,,2013-08-03 20:32:00,
2013-08-03 14:42:00,86.0,47.0,29.67,West,264,1.0,-999.0,26,-99.99,,,-99.99,,2013-08-03 20:42:00,
2013-08-03 14:52:00,87.0,48.0,29.66,WSW,237,4.0,-999.0,26,-99.99,,,-99.99,,2013-08-03 20:52:00,
2013-08-03 15:02:00,88.0,47.0,29.67,WSW,238,4.0,-999.0,24,-99.99,,,-99.99,,2013-08-03 21:02:00,
2013-08-03 15:12:00,88.0,47.0,29.67,WSW,238,4.0,-999.0,24,-99.99,,,-99.99,,2013-08-03 21:12:00,
2013-08-03 15:22:00,88.0,48.0,29.65,SSE,164,3.0,-999.0,25,-99.99,,,-99.99,,2013-08-03 21:22:00,
2013-08-03 15:32:00,87.0,47.0,29.65,SW,217,3.0,-999.0,25,-99.99,,,-99.99,,2013-08-03 21:32:00,
2013-08-03 15:42:00,87.0,47.0,29.65,SW,217,3.0,-999.0,25,-99.99,,,-99.99,,2013-08-03 21:42:00,
2013-08-03 15:52:00,88.0,47.0,29.65,SSW,192,0.0,-999.0,24,-99.99,,,-99.99,,2013-08-03 21:52:00,
2013-08-03 16:02:00,88.0,46.0,29.64,SW,233,6.0,-999.0,23,-99.99,,,-99.99,,2013-08-03 22:02:00,
2013-08-03 16:12:00,88.0,46.0,29.64,SW,233,6.0,-999.0,23,-99.99,,,-99.99,,2013-08-03 22:12:00,
2013-08-03 16:22:00,88.0,47.0,29.64,WNW,293,5.0,-999.0,24,-99.99,,,-99.99,,2013-08-03 22:22:00,
2013-08-03 16:33:00,87.0,46.0,29.63,SW,223,8.0,-999.0,24,-99.99,,,-99.99,,2013-08-03 22:33:00,
2013-08-03 16:43:00,87.0,46.0,29.63,SW,223,8.0,-999.0,24,-99.99,,,-99.99,,2013-08-03 22:43:00,
2013-08-03 16:52:00,87.0,46.0,29.64,West,259,8.0,-999.0,24,-99.99,,,-99.99,,2013-08-03 22:52:00,
2013-08-03 17:02:00,88.0,46.0,29.64,South,188,4.0,-999.0,23,-99.99,,,-99.99,,2013-08-03 23:02:00,
2013-08-03 17:12:00,88.0,46.0,29.64,South,188,4.0,-999.0,23,-99.99,,,-99.99,,2013-08-03 23:12:00,
2013-08-03 17:22:00,89.0,45.0,29.63,SSW,202,5.0,-999.0,22,-99.99,,,-99.99,,2013-08-03 23:22:00,
2013-08-03 17:32:00,87.0,49.0,29.61,NNW,345,10.0,-999.0,27,-99.99,,,-99.99,,2013-08-03 23:32:00,
2013-08-03 17:42:00,87.0,49.0,29.61,NNW,345,10.0,-999.0,27,-99.99,,,-99.99,,2013-08-03 23:42:00,
2013-08-03 17:52:00,85.0,49.0,29.63,NNW,341,8.0,-999.0,29,-99.99,,,-99.99,,2013-08-03 23:52:00,
2013-08-03 18:02:00,87.0,49.0,29.63,North,351,7.0,-999.0,27,-99.99,,,-99.99,,2013-08-04 00:02:00,
2013-08-03 18:12:00,87.0,49.0,29.63,North,351,7.0,-999.0,27,-99.99,,,-99.99,,2013-08-04 00:12:00,
2013-08-03 18:22:00,85.0,48.0,29.62,NNW,340,4.0,-999.0,28,-99.99,,,-99.99,,2013-08-04 00:22:00,
2013-08-03 18:32:00,85.0,47.0,29.62,North,354,8.0,-999.0,27,-99.99,,,-99.99,,2013-08-04 00:32:00,
2013-08-03 18:42:00,85.0,47.0,29.62,North,354,8.0,-999.0,27,-99.99,,,-99.99,,2013-08-04 00:42:00,
2013-08-03 18:53:00,85.0,48.0,29.60,North,357,6.0,-999.0,28,-99.99,,,-99.99,,2013-08-04 00:53:00,
2013-08-03 19:02:00,85.0,48.0,29.60,North,357,6.0,-999.0,28,-99.99,,,-99.99,,2013-08-04 01:02:00,
2013-08-03 19:12:00,85.0,47.0,29.61,North,359,2.0,-999.0,27,-99.99,,,-99.99,,2013-08-04 01:12:00,
2013-08-03 19:22:00,85.0,47.0,29.61,North,359,2.0,-999.0,27,-99.99,,,-99.99,,2013-08-04 01:22:00,
2013-08-03 19:32:00,85.0,47.0,29.61,North,359,2.0,-999.0,27,-99.99,,,-99.99,,2013-08-04 01:32:00,
2013-08-03 19:42:00,84.0,46.0,29.61,North,0,1.0,-999.0,27,-99.99,,,-99.99,,2013-08-04 01:42:00,
2013-08-03 19:52:00,84.0,46.0,29.58,North,6,2.0,-999.0,27,-99.99,,,-99.99,,2013-08-04 01:52:00,
2013-08-03 20:02:00,84.0,46.0,29.58,North,6,2.0,-999.0,27,-99.99,,,-99.99,,2013-08-04 02:02:00,
2013-08-03 20:12:00,84.0,46.0,29.58,North,6,2.0,-999.0,27,-99.99,,,-99.99,,2013-08-04 02:12:00,
2013-08-03 20:22:00,84.0,47.0,29.59,North,1,4.0,-999.0,28,-99.99,,,-99.99,,2013-08-04 02:22:00,
2013-08-03 20:32:00,84.0,47.0,29.59,North,1,4.0,-999.0,28,-99.99,,,-99.99,,2013-08-04 02:32:00,
2013-08-03 20:42:00,84.0,47.0,29.59,North,1,4.0,-999.0,28,-99.99,,,-99.99,,2013-08-04 02:42:00,
2013-08-03 20:52:00,78.0,50.0,29.62,North,358,1.0,-999.0,37,-99.99,,,-99.99,,2013-08-04 02:52:00,
2013-08-03 21:02:00,78.0,50.0,29.62,North,358,1.0,-999.0,37,-99.99,,,-99.99,,2013-08-04 03:02:00,
2013-08-03 21:11:00,77.0,50.0,29.63,North,358,0.0,-999.0,39,-99.99,,,-99.99,,2013-08-04 03:11:00,
2013-08-03 21:21:00,75.0,51.0,29.65,North,358,0.0,-999.0,43,-99.99,,,-99.99,,2013-08-04 03:21:00,
2013-08-03 21:22:00,77.0,50.0,29.63,North,358,0.0,-999.0,39,-99.99,,,-99.99,,2013-08-04 03:22:00,
2013-08-03 21:32:00,77.0,50.0,29.63,North,358,0.0,-999.0,39,-99.99,,,-99.99,,2013-08-04 03:32:00,
2013-08-03 21:42:00,75.0,51.0,29.65,North,358,0.0,-999.0,43,-99.99,,,-99.99,,2013-08-04 03:42:00,
2013-08-03 21:52:00,75.0,51.0,29.65,North,358,0.0,-999.0,43,-99.99,,,-99.99,,2013-08-04 03:52:00,
2013-08-03 22:02:00,75.0,51.0,29.65,North,358,0.0,-999.0,43,-99.99,,,-99.99,,2013-08-04 04:02:00,
2013-08-03 22:11:00,75.0,51.0,29.65,North,358,0.0,-999.0,43,-99.99,,,-99.99,,2013-08-04 04:11:00,
2013-08-03 22:52:00,73.0,53.0,29.66,North,359,0.0,-999.0,49,-99.99,,,-99.99,,2013-08-04 04:52:00,
2013-08-03 23:02:00,73.0,53.0,29.66,North,359,0.0,-999.0,49,-99.99,,,-99.99,,2013-08-04 05:02:00,
2013-08-03 23:12:00,73.0,53.0,29.66,North,359,0.0,-999.0,49,-99.99,,,-99.99,,2013-08-04 05:12:00,
2013-08-03 23:22:00,71.0,52.0,29.66,North,359,1.0,-999.0,52,-99.99,,,-99.99,,2013-08-04 05:22:00,
2013-08-03 23:32:00,71.0,52.0,29.66,North,359,1.0,-999.0,52,-99.99,,,-99.99,,2013-08-04 05:32:00,
2013-08-03 23:42:00,71.0,52.0,29.66,North,359,1.0,-999.0,52,-99.99,,,-99.99,,2013-08-04 05:42:00,
2013-08-03 23:52:00,71.0,52.0,29.66,North,359,1.0,-999.0,52,-99.99,,,-99.99,,2013-08-04 05:52:00,